owner,sensor,date,latitude,longitude,vertical_datum,direction_of_sea_water_velocity,sea_water_speed,upward_sea_water_velocity,qcFlag 
TABS,ioos:station:wmo:42048:1,1997-11-20T17:30:00Z,27.9396,-96.8429,2.0,228.374424,28.70882269,-99999.0,'11111222,11111222,99999999' 
TABS,ioos:station:wmo:42048:1,1997-11-20T18:00:00Z,27.9396,-96.8429,2.0,218.5673732,30.10721674,-99999.0,'11111222,11111222,99999999' 
TABS,ioos:station:wmo:42048:1,1997-11-20T18:30:00Z,27.9396,-96.8429,2.0,213.682194,41.90482669,-99999.0,'11111222,11111222,99999999' 
TABS,ioos:station:wmo:42048:1,1997-11-20T19:00:00Z,27.9396,-96.8429,2.0,215.68262,40.35665992,-99999.0,'11111222,11111222,99999999' 
TABS,ioos:station:wmo:42048:1,1997-11-20T19:30:00Z,27.9396,-96.8429,2.0,216.054147,42.01825556,-99999.0,'11111222,11111222,99999999' 
TABS,ioos:station:wmo:42048:1,1997-11-20T20:00:00Z,27.9396,-96.8429,2.0,223.0780788,31.42028167,-99999.0,'11111222,11111222,99999999' 
TABS,ioos:station:wmo:42048:1,1997-11-20T20:30:00Z,27.9396,-96.8429,2.0,238.2391224,22.07571743,-99999.0,'11111222,11111222,99999999' 
TABS,ioos:station:wmo:42048:1,1997-11-20T21:00:00Z,27.9396,-96.8429,2.0,237.4144093,21.57630181,-99999.0,'11111222,11111222,99999999' 
TABS,ioos:station:wmo:42048:1,1997-11-20T21:30:00Z,27.9396,-96.8429,2.0,230.1012295,23.69709687,-99999.0,'11111222,11111222,99999999' 
TABS,ioos:station:wmo:42048:1,1997-11-20T22:00:00Z,27.9396,-96.8429,2.0,233.2299867,30.87204723,-99999.0,'11111222,11111222,99999999' 
TABS,ioos:station:wmo:42048:1,1997-11-20T22:30:00Z,27.9396,-96.8429,2.0,233.633333,33.67930076,-99999.0,'11111222,11111222,99999999' 
TABS,ioos:station:wmo:42048:1,1997-11-20T23:00:00Z,27.9396,-96.8429,2.0,236.9278834,30.58517615,-99999.0,'11111222,11111222,99999999' 
TABS,ioos:station:wmo:42048:1,1997-11-20T23:30:00Z,27.9396,-96.8429,2.0,236.4594568,30.74991057,-99999.0,'11111222,11111222,99999999' 
TABS,ioos:station:wmo:42048:1,1997-11-21T00:00:00Z,27.9396,-96.8429,2.0,238.4641394,30.76323293,-99999.0,'11111222,11111222,99999999' 
TABS,ioos:station:wmo:42048:1,1997-11-21T00:30:00Z,27.9396,-96.8429,2.0,240.0971349,27.50108543,-99999.0,'11111222,11111222,99999999' 
TABS,ioos:station:wmo:42048:1,1997-11-21T01:00:00Z,27.9396,-96.8429,2.0,240.4117183,25.35651593,-99999.0,'11111222,11111222,99999999' 
TABS,ioos:station:wmo:42048:1,1997-11-21T01:30:00Z,27.9396,-96.8429,2.0,239.559458,21.77093935,-99999.0,'11111222,11111222,99999999' 
TABS,ioos:station:wmo:42048:1,1997-11-21T02:00:00Z,27.9396,-96.8429,2.0,241.8541268,23.99766655,-99999.0,'11111222,11111222,99999999' 
TABS,ioos:station:wmo:42048:1,1997-11-21T02:30:00Z,27.9396,-96.8429,2.0,234.6642074,20.09120454,-99999.0,'11111222,11111222,99999999' 
TABS,ioos:station:wmo:42048:1,1997-11-21T03:00:00Z,27.9396,-96.8429,2.0,235.3045067,23.55896857,-99999.0,'11111222,11111222,99999999' 
TABS,ioos:station:wmo:42048:1,1997-11-21T03:30:00Z,27.9396,-96.8429,2.0,226.9591083,43.22242589,-99999.0,'11111222,11111222,99999999' 
TABS,ioos:station:wmo:42048:1,1997-11-21T04:00:00Z,27.9396,-96.8429,2.0,219.8484197,49.3006146,-99999.0,'11111222,11111222,99999999' 
TABS,ioos:station:wmo:42048:1,1997-11-21T04:30:00Z,27.9396,-96.8429,2.0,223.1741463,46.16922135,-99999.0,'11111222,11111222,99999999' 
TABS,ioos:station:wmo:42048:1,1997-11-21T05:00:00Z,27.9396,-96.8429,2.0,217.7713813,45.23960323,-99999.0,'11111222,11111222,99999999' 
TABS,ioos:station:wmo:42048:1,1997-11-21T05:30:00Z,27.9396,-96.8429,2.0,217.0205773,45.5401581,-99999.0,'11111222,11111222,99999999' 
TABS,ioos:station:wmo:42048:1,1997-11-21T06:00:00Z,27.9396,-96.8429,2.0,219.492122,41.69967386,-99999.0,'11111222,11111222,99999999' 
TABS,ioos:station:wmo:42048:1,1997-11-21T06:30:00Z,27.9396,-96.8429,2.0,214.6612147,38.77079571,-99999.0,'11111222,11111222,99999999' 
TABS,ioos:station:wmo:42048:1,1997-11-21T07:00:00Z,27.9396,-96.8429,2.0,211.5150393,37.05570132,-99999.0,'11111222,11111222,99999999' 
TABS,ioos:station:wmo:42048:1,1997-11-21T07:30:00Z,27.9396,-96.8429,2.0,211.4496665,35.97483843,-99999.0,'11111222,11111222,99999999' 
TABS,ioos:station:wmo:42048:1,1997-11-21T08:00:00Z,27.9396,-96.8429,2.0,215.7188603,32.66458786,-99999.0,'11111222,11111222,99999999' 
TABS,ioos:station:wmo:42048:1,1997-11-21T08:30:00Z,27.9396,-96.8429,2.0,210.3044908,30.71742828,-99999.0,'11111222,11111222,99999999' 
TABS,ioos:station:wmo:42048:1,1997-11-21T09:00:00Z,27.9396,-96.8429,2.0,203.2946449,21.08915598,-99999.0,'11111222,11111222,99999999' 
TABS,ioos:station:wmo:42048:1,1997-11-21T09:30:00Z,27.9396,-96.8429,2.0,212.964173,26.28102928,-99999.0,'11111222,11111222,99999999' 
TABS,ioos:station:wmo:42048:1,1997-11-21T10:00:00Z,27.9396,-96.8429,2.0,208.8361841,23.47032169,-99999.0,'11111222,11111222,99999999' 
TABS,ioos:station:wmo:42048:1,1997-11-21T10:30:00Z,27.9396,-96.8429,2.0,205.3517045,18.80060105,-99999.0,'11111222,11111222,99999999' 
TABS,ioos:station:wmo:42048:1,1997-11-21T11:00:00Z,27.9396,-96.8429,2.0,193.5669509,17.77603162,-99999.0,'11111222,11111222,99999999' 
TABS,ioos:station:wmo:42048:1,1997-11-21T11:30:00Z,27.9396,-96.8429,2.0,187.9844664,15.04586654,-99999.0,'11111222,11111222,99999999' 
TABS,ioos:station:wmo:42048:1,1997-11-21T12:00:00Z,27.9396,-96.8429,2.0,188.6674055,13.86838851,-99999.0,'11111222,11111222,99999999' 
TABS,ioos:station:wmo:42048:1,1997-11-21T12:30:00Z,27.9396,-96.8429,2.0,199.4240037,16.11736951,-99999.0,'11111222,11111222,99999999' 
TABS,ioos:station:wmo:42048:1,1997-11-21T13:00:00Z,27.9396,-96.8429,2.0,208.6071202,14.93300372,-99999.0,'11111222,11111222,99999999' 
TABS,ioos:station:wmo:42048:1,1997-11-21T13:30:00Z,27.9396,-96.8429,2.0,214.978822,14.54792081,-99999.0,'11111222,11111222,99999999' 
TABS,ioos:station:wmo:42048:1,1997-11-21T14:00:00Z,27.9396,-96.8429,2.0,227.8901647,20.89330275,-99999.0,'11111222,11111222,99999999' 
TABS,ioos:station:wmo:42048:1,1997-11-21T14:30:00Z,27.9396,-96.8429,2.0,229.2667159,14.16017302,-99999.0,'11111222,11111222,99999999' 
TABS,ioos:station:wmo:42048:1,1997-11-21T15:00:00Z,27.9396,-96.8429,2.0,227.8812613,16.87876773,-99999.0,'11111222,11111222,99999999' 
TABS,ioos:station:wmo:42048:1,1997-11-21T15:30:00Z,27.9396,-96.8429,2.0,223.5207793,16.43863741,-99999.0,'11111222,11111222,99999999' 
TABS,ioos:station:wmo:42048:1,1997-11-21T16:00:00Z,27.9396,-96.8429,2.0,233.6499852,19.60480808,-99999.0,'11111222,11111222,99999999' 
TABS,ioos:station:wmo:42048:1,1997-11-21T16:30:00Z,27.9396,-96.8429,2.0,230.1905987,20.94555323,-99999.0,'11111222,11111222,99999999' 
TABS,ioos:station:wmo:42048:1,1997-11-21T17:00:00Z,27.9396,-96.8429,2.0,228.1455606,19.1985963,-99999.0,'11111222,11111222,99999999' 
TABS,ioos:station:wmo:42048:1,1997-11-21T17:30:00Z,27.9396,-96.8429,2.0,212.6651061,27.60629638,-99999.0,'11111222,11111222,99999999' 
TABS,ioos:station:wmo:42048:1,1997-11-21T18:00:00Z,27.9396,-96.8429,2.0,225.8356509,29.07932599,-99999.0,'11111222,11111222,99999999' 
TABS,ioos:station:wmo:42048:1,1997-11-21T18:30:00Z,27.9396,-96.8429,2.0,222.1248674,29.32526897,-99999.0,'11111222,11111222,99999999' 
TABS,ioos:station:wmo:42048:1,1997-11-21T19:00:00Z,27.9396,-96.8429,2.0,227.0059825,24.03515134,-99999.0,'11111222,11111222,99999999' 
TABS,ioos:station:wmo:42048:1,1997-11-21T19:30:00Z,27.9396,-96.8429,2.0,234.2717223,30.10597947,-99999.0,'11111222,11111222,99999999' 
TABS,ioos:station:wmo:42048:1,1997-11-21T20:00:00Z,27.9396,-96.8429,2.0,226.3566113,35.83207781,-99999.0,'11111222,11111222,99999999' 
TABS,ioos:station:wmo:42048:1,1997-11-21T20:30:00Z,27.9396,-96.8429,2.0,226.2430021,38.779795,-99999.0,'11111222,11111222,99999999' 
TABS,ioos:station:wmo:42048:1,1997-11-21T21:00:00Z,27.9396,-96.8429,2.0,227.2800511,31.63272356,-99999.0,'11111222,11111222,99999999' 
TABS,ioos:station:wmo:42048:1,1997-11-21T21:30:00Z,27.9396,-96.8429,2.0,226.7353848,34.78440024,-99999.0,'11111222,11111222,99999999' 
TABS,ioos:station:wmo:42048:1,1997-11-21T22:00:00Z,27.9396,-96.8429,2.0,221.058697,39.91864727,-99999.0,'11111222,11111222,99999999' 
TABS,ioos:station:wmo:42048:1,1997-11-21T22:30:00Z,27.9396,-96.8429,2.0,220.3480224,36.35898376,-99999.0,'11111222,11111222,99999999' 
TABS,ioos:station:wmo:42048:1,1997-11-21T23:00:00Z,27.9396,-96.8429,2.0,216.1241318,36.89312267,-99999.0,'11111222,11111222,99999999' 
TABS,ioos:station:wmo:42048:1,1997-11-21T23:30:00Z,27.9396,-96.8429,2.0,212.7975023,36.86707203,-99999.0,'11111222,11111222,99999999' 
TABS,ioos:station:wmo:42048:1,1997-11-22T00:00:00Z,27.9396,-96.8429,2.0,214.7225678,36.62170941,-99999.0,'11111222,11111222,99999999' 
TABS,ioos:station:wmo:42048:1,1997-11-22T00:30:00Z,27.9396,-96.8429,2.0,215.476723,31.84140857,-99999.0,'11111222,11111222,99999999' 
TABS,ioos:station:wmo:42048:1,1997-11-22T01:00:00Z,27.9396,-96.8429,2.0,215.3365745,28.8563286,-99999.0,'11111222,11111222,99999999' 
TABS,ioos:station:wmo:42048:1,1997-11-22T01:30:00Z,27.9396,-96.8429,2.0,214.881227,27.61062477,-99999.0,'11111222,11111222,99999999' 
TABS,ioos:station:wmo:42048:1,1997-11-22T02:00:00Z,27.9396,-96.8429,2.0,211.7382903,26.6327355,-99999.0,'11111222,11111222,99999999' 
TABS,ioos:station:wmo:42048:1,1997-11-22T02:30:00Z,27.9396,-96.8429,2.0,211.0795506,25.3955626,-99999.0,'11111222,11111222,99999999' 
TABS,ioos:station:wmo:42048:1,1997-11-22T03:00:00Z,27.9396,-96.8429,2.0,210.6931923,22.17672879,-99999.0,'11111222,11111222,99999999' 
TABS,ioos:station:wmo:42048:1,1997-11-22T03:30:00Z,27.9396,-96.8429,2.0,210.8001145,18.04515447,-99999.0,'11111222,11111222,99999999' 
TABS,ioos:station:wmo:42048:1,1997-11-22T04:00:00Z,27.9396,-96.8429,2.0,207.5868785,14.79170714,-99999.0,'11111222,11111222,99999999' 
TABS,ioos:station:wmo:42048:1,1997-11-22T04:30:00Z,27.9396,-96.8429,2.0,205.8158586,10.26442887,-99999.0,'11111222,11111222,99999999' 
TABS,ioos:station:wmo:42048:1,1997-11-22T05:00:00Z,27.9396,-96.8429,2.0,188.7292643,7.840829038,-99999.0,'11133222,11111222,99999999' 
TABS,ioos:station:wmo:42048:1,1997-11-22T05:30:00Z,27.9396,-96.8429,2.0,179.9997895,5.66,-99999.0,'11133222,11111222,99999999' 
TABS,ioos:station:wmo:42048:1,1997-11-22T06:00:00Z,27.9396,-96.8429,2.0,179.9997895,3.58,-99999.0,'11133222,11111222,99999999' 
TABS,ioos:station:wmo:42048:1,1997-11-22T06:30:00Z,27.9396,-96.8429,2.0,104.149443,1.227232659,-99999.0,'11133222,11111222,99999999' 
TABS,ioos:station:wmo:42048:1,1997-11-22T07:00:00Z,27.9396,-96.8429,2.0,203.0658506,2.27160736,-99999.0,'11133222,11111222,99999999' 
TABS,ioos:station:wmo:42048:1,1997-11-22T07:30:00Z,27.9396,-96.8429,2.0,218.6125822,1.906882272,-99999.0,'11133222,11111222,99999999' 
TABS,ioos:station:wmo:42048:1,1997-11-22T08:00:00Z,27.9396,-96.8429,2.0,270.0004209,0.3,-99999.0,'11133222,11111222,99999999' 
TABS,ioos:station:wmo:42048:1,1997-11-22T08:30:00Z,27.9396,-96.8429,2.0,258.6157432,1.519901313,-99999.0,'11133222,11111222,99999999' 
TABS,ioos:station:wmo:42048:1,1997-11-22T09:00:00Z,27.9396,-96.8429,2.0,179.9997895,1.79,-99999.0,'11133222,11111222,99999999' 
TABS,ioos:station:wmo:42048:1,1997-11-22T09:30:00Z,27.9396,-96.8429,2.0,189.5139878,1.814965564,-99999.0,'11133222,11111222,99999999' 
TABS,ioos:station:wmo:42048:1,1997-11-22T10:00:00Z,27.9396,-96.8429,2.0,224.9996843,1.258650071,-99999.0,'11133222,11111222,99999999' 
TABS,ioos:station:wmo:42048:1,1997-11-22T10:30:00Z,27.9396,-96.8429,2.0,281.3842568,1.519901313,-99999.0,'11133222,11111222,99999999' 
TABS,ioos:station:wmo:42048:1,1997-11-22T11:00:00Z,27.9396,-96.8429,2.0,280.3667193,3.334426487,-99999.0,'11133222,11111222,99999999' 
TABS,ioos:station:wmo:42048:1,1997-11-22T11:30:00Z,27.9396,-96.8429,2.0,293.9430146,2.932319901,-99999.0,'11133222,11111222,99999999' 
TABS,ioos:station:wmo:42048:1,1997-11-22T12:00:00Z,27.9396,-96.8429,2.0,301.5913256,4.543269748,-99999.0,'11133222,11111222,99999999' 
TABS,ioos:station:wmo:42048:1,1997-11-22T12:30:00Z,27.9396,-96.8429,2.0,320.7489657,4.235658154,-99999.0,'11133222,11111222,99999999' 
TABS,ioos:station:wmo:42048:1,1997-11-22T13:00:00Z,27.9396,-96.8429,2.0,287.5501687,5.936303564,-99999.0,'11133222,11111222,99999999' 
TABS,ioos:station:wmo:42048:1,1997-11-22T13:30:00Z,27.9396,-96.8429,2.0,279.4497258,7.248351537,-99999.0,'11133222,11111222,99999999' 
TABS,ioos:station:wmo:42048:1,1997-11-22T14:00:00Z,27.9396,-96.8429,2.0,285.2628941,6.79983088,-99999.0,'11133222,11111222,99999999' 
TABS,ioos:station:wmo:42048:1,1997-11-22T14:30:00Z,27.9396,-96.8429,2.0,288.4112831,7.535708328,-99999.0,'11133222,11111222,99999999' 
TABS,ioos:station:wmo:42048:1,1997-11-22T15:00:00Z,27.9396,-96.8429,2.0,272.4030248,7.156290939,-99999.0,'11133222,11111222,99999999' 
TABS,ioos:station:wmo:42048:1,1997-11-22T15:30:00Z,27.9396,-96.8429,2.0,262.5011204,11.41763986,-99999.0,'11111222,11111222,99999999' 
TABS,ioos:station:wmo:42048:1,1997-11-22T16:00:00Z,27.9396,-96.8429,2.0,277.9550972,12.93445785,-99999.0,'11111222,11111222,99999999' 
TABS,ioos:station:wmo:42048:1,1997-11-22T16:30:00Z,27.9396,-96.8429,2.0,286.3289809,12.73360907,-99999.0,'11111222,11111222,99999999' 
TABS,ioos:station:wmo:42048:1,1997-11-22T17:00:00Z,27.9396,-96.8429,2.0,282.0085414,14.32342487,-99999.0,'11111222,11111222,99999999' 
TABS,ioos:station:wmo:42048:1,1997-11-22T17:30:00Z,27.9396,-96.8429,2.0,277.710295,17.74037204,-99999.0,'11111222,11111222,99999999' 
TABS,ioos:station:wmo:42048:1,1997-11-22T18:00:00Z,27.9396,-96.8429,2.0,275.0123487,17.05521035,-99999.0,'11111222,11111222,99999999' 
TABS,ioos:station:wmo:42048:1,1997-11-22T18:30:00Z,27.9396,-96.8429,2.0,272.1765359,15.80139551,-99999.0,'11111222,11111222,99999999' 
TABS,ioos:station:wmo:42048:1,1997-11-22T19:00:00Z,27.9396,-96.8429,2.0,269.0383329,17.8825166,-99999.0,'11111222,11111222,99999999' 
TABS,ioos:station:wmo:42048:1,1997-11-22T19:30:00Z,27.9396,-96.8429,2.0,251.1973986,14.79976351,-99999.0,'11111222,11111222,99999999' 
TABS,ioos:station:wmo:42048:1,1997-11-22T20:00:00Z,27.9396,-96.8429,2.0,252.1533066,18.46867618,-99999.0,'11111222,11111222,99999999' 
TABS,ioos:station:wmo:42048:1,1997-11-22T20:30:00Z,27.9396,-96.8429,2.0,254.364501,15.4725208,-99999.0,'11111222,11111222,99999999' 
TABS,ioos:station:wmo:42048:1,1997-11-22T21:00:00Z,27.9396,-96.8429,2.0,258.6773488,18.23487867,-99999.0,'11111222,11111222,99999999' 
TABS,ioos:station:wmo:42048:1,1997-11-22T21:30:00Z,27.9396,-96.8429,2.0,255.0243877,21.90390833,-99999.0,'11111222,11111222,99999999' 
TABS,ioos:station:wmo:42048:1,1997-11-22T22:00:00Z,27.9396,-96.8429,2.0,257.6650009,19.52059938,-99999.0,'11111222,11111222,99999999' 
TABS,ioos:station:wmo:42048:1,1997-11-22T22:30:00Z,27.9396,-96.8429,2.0,245.0918427,18.40159232,-99999.0,'11111222,11111222,99999999' 
TABS,ioos:station:wmo:42048:1,1997-11-22T23:00:00Z,27.9396,-96.8429,2.0,251.5533658,16.02326122,-99999.0,'11111222,11111222,99999999' 
TABS,ioos:station:wmo:42048:1,1997-11-22T23:30:00Z,27.9396,-96.8429,2.0,246.2097411,19.21246731,-99999.0,'11111222,11111222,99999999' 
TABS,ioos:station:wmo:42048:1,1997-11-23T00:00:00Z,27.9396,-96.8429,2.0,243.7699753,22.92008944,-99999.0,'11111222,11111222,99999999' 
TABS,ioos:station:wmo:42048:1,1997-11-23T00:30:00Z,27.9396,-96.8429,2.0,243.7327344,24.92355111,-99999.0,'11111222,11111222,99999999' 
TABS,ioos:station:wmo:42048:1,1997-11-23T01:00:00Z,27.9396,-96.8429,2.0,237.2956296,28.68779531,-99999.0,'11111222,11111222,99999999' 
TABS,ioos:station:wmo:42048:1,1997-11-23T01:30:00Z,27.9396,-96.8429,2.0,241.5306006,28.13185028,-99999.0,'11111222,11111222,99999999' 
TABS,ioos:station:wmo:42048:1,1997-11-23T02:00:00Z,27.9396,-96.8429,2.0,244.4691619,29.72218868,-99999.0,'11111222,11111222,99999999' 
TABS,ioos:station:wmo:42048:1,1997-11-23T02:30:00Z,27.9396,-96.8429,2.0,245.6644279,27.47077174,-99999.0,'11111222,11111222,99999999' 
TABS,ioos:station:wmo:42048:1,1997-11-23T03:00:00Z,27.9396,-96.8429,2.0,245.1711769,26.2679748,-99999.0,'11111222,11111222,99999999' 
TABS,ioos:station:wmo:42048:1,1997-11-23T03:30:00Z,27.9396,-96.8429,2.0,241.6044522,25.06569169,-99999.0,'11111222,11111222,99999999' 
TABS,ioos:station:wmo:42048:1,1997-11-23T04:00:00Z,27.9396,-96.8429,2.0,244.9417562,25.33447059,-99999.0,'11111222,11111222,99999999' 
TABS,ioos:station:wmo:42048:1,1997-11-23T04:30:00Z,27.9396,-96.8429,2.0,244.4465767,22.7890873,-99999.0,'11111222,11111222,99999999' 
TABS,ioos:station:wmo:42048:1,1997-11-23T05:00:00Z,27.9396,-96.8429,2.0,238.7540169,21.26436691,-99999.0,'11111222,11111222,99999999' 
TABS,ioos:station:wmo:42048:1,1997-11-23T05:30:00Z,27.9396,-96.8429,2.0,233.2618639,23.42206225,-99999.0,'11111222,11111222,99999999' 
TABS,ioos:station:wmo:42048:1,1997-11-23T06:00:00Z,27.9396,-96.8429,2.0,248.6463419,14.72051969,-99999.0,'11111222,11111222,99999999' 
TABS,ioos:station:wmo:42048:1,1997-11-23T06:30:00Z,27.9396,-96.8429,2.0,241.480034,15.60341629,-99999.0,'11111222,11111222,99999999' 
TABS,ioos:station:wmo:42048:1,1997-11-23T07:00:00Z,27.9396,-96.8429,2.0,239.3834179,16.96495211,-99999.0,'11111222,11111222,99999999' 
TABS,ioos:station:wmo:42048:1,1997-11-23T07:30:00Z,27.9396,-96.8429,2.0,231.5710871,22.05816175,-99999.0,'11111222,11111222,99999999' 
TABS,ioos:station:wmo:42048:1,1997-11-23T08:00:00Z,27.9396,-96.8429,2.0,232.4925099,21.03930132,-99999.0,'11111222,11111222,99999999' 
TABS,ioos:station:wmo:42048:1,1997-11-23T08:30:00Z,27.9396,-96.8429,2.0,233.6130117,21.10475065,-99999.0,'11111222,11111222,99999999' 
TABS,ioos:station:wmo:42048:1,1997-11-23T09:00:00Z,27.9396,-96.8429,2.0,233.3232516,18.95210806,-99999.0,'11111222,11111222,99999999' 
TABS,ioos:station:wmo:42048:1,1997-11-23T09:30:00Z,27.9396,-96.8429,2.0,239.5026103,19.36969282,-99999.0,'11111222,11111222,99999999' 
TABS,ioos:station:wmo:42048:1,1997-11-23T10:00:00Z,27.9396,-96.8429,2.0,235.6872161,22.72463421,-99999.0,'11111222,11111222,99999999' 
TABS,ioos:station:wmo:42048:1,1997-11-23T10:30:00Z,27.9396,-96.8429,2.0,231.4426007,24.38657212,-99999.0,'11111222,11111222,99999999' 
TABS,ioos:station:wmo:42048:1,1997-11-23T11:00:00Z,27.9396,-96.8429,2.0,226.3409086,27.18863365,-99999.0,'11111222,11111222,99999999' 
TABS,ioos:station:wmo:42048:1,1997-11-23T11:30:00Z,27.9396,-96.8429,2.0,233.4151208,24.4963038,-99999.0,'11111222,11111222,99999999' 
TABS,ioos:station:wmo:42048:1,1997-11-23T12:00:00Z,27.9396,-96.8429,2.0,235.5682832,19.50766516,-99999.0,'11111222,11111222,99999999' 
TABS,ioos:station:wmo:42048:1,1997-11-23T12:30:00Z,27.9396,-96.8429,2.0,236.1135464,25.12806598,-99999.0,'11111222,11111222,99999999' 
TABS,ioos:station:wmo:42048:1,1997-11-23T13:00:00Z,27.9396,-96.8429,2.0,230.290407,22.85205461,-99999.0,'11111222,11111222,99999999' 
TABS,ioos:station:wmo:42048:1,1997-11-23T13:30:00Z,27.9396,-96.8429,2.0,237.5818235,22.23509163,-99999.0,'11111222,11111222,99999999' 
TABS,ioos:station:wmo:42048:1,1997-11-23T14:00:00Z,27.9396,-96.8429,2.0,230.6622433,23.50579503,-99999.0,'11111222,11111222,99999999' 
TABS,ioos:station:wmo:42048:1,1997-11-23T14:30:00Z,27.9396,-96.8429,2.0,231.4426007,24.38657212,-99999.0,'11111222,11111222,99999999' 
TABS,ioos:station:wmo:42048:1,1997-11-23T15:00:00Z,27.9396,-96.8429,2.0,227.1528592,28.04244105,-99999.0,'11111222,11111222,99999999' 
TABS,ioos:station:wmo:42048:1,1997-11-23T15:30:00Z,27.9396,-96.8429,2.0,226.1796407,30.56056446,-99999.0,'11111222,11111222,99999999' 
TABS,ioos:station:wmo:42048:1,1997-11-23T16:00:00Z,27.9396,-96.8429,2.0,224.9996843,30.75914498,-99999.0,'11111222,11111222,99999999' 
TABS,ioos:station:wmo:42048:1,1997-11-23T16:30:00Z,27.9396,-96.8429,2.0,223.7509689,28.87802798,-99999.0,'11111222,11111222,99999999' 
TABS,ioos:station:wmo:42048:1,1997-11-23T17:00:00Z,27.9396,-96.8429,2.0,225.7791688,31.18629507,-99999.0,'11111222,11111222,99999999' 
TABS,ioos:station:wmo:42048:1,1997-11-23T17:30:00Z,27.9396,-96.8429,2.0,223.1028335,31.83017593,-99999.0,'11111222,11111222,99999999' 
TABS,ioos:station:wmo:42048:1,1997-11-23T18:00:00Z,27.9396,-96.8429,2.0,229.168528,31.90421916,-99999.0,'11111222,11111222,99999999' 
TABS,ioos:station:wmo:42048:1,1997-11-23T18:30:00Z,27.9396,-96.8429,2.0,237.4477963,33.23032501,-99999.0,'11111222,11111222,99999999' 
TABS,ioos:station:wmo:42048:1,1997-11-23T19:00:00Z,27.9396,-96.8429,2.0,240.7996269,34.82556676,-99999.0,'11111222,11111222,99999999' 
TABS,ioos:station:wmo:42048:1,1997-11-23T19:30:00Z,27.9396,-96.8429,2.0,241.8436017,48.00005104,-99999.0,'11111222,11111222,99999999' 
TABS,ioos:station:wmo:42048:1,1997-11-23T20:00:00Z,27.9396,-96.8429,2.0,236.6168119,46.03523107,-99999.0,'11111222,11111222,99999999' 
TABS,ioos:station:wmo:42048:1,1997-11-23T20:30:00Z,27.9396,-96.8429,2.0,233.6884112,48.82032056,-99999.0,'11111222,11111222,99999999' 
TABS,ioos:station:wmo:42048:1,1997-11-23T21:00:00Z,27.9396,-96.8429,2.0,230.7661486,46.16727846,-99999.0,'11111222,11111222,99999999' 
TABS,ioos:station:wmo:42048:1,1997-11-23T21:30:00Z,27.9396,-96.8429,2.0,232.3506908,47.80441925,-99999.0,'11111222,11111222,99999999' 
TABS,ioos:station:wmo:42048:1,1997-11-23T22:00:00Z,27.9396,-96.8429,2.0,228.179507,37.98769538,-99999.0,'11111222,11111222,99999999' 
TABS,ioos:station:wmo:42048:1,1997-11-23T22:30:00Z,27.9396,-96.8429,2.0,227.6086821,37.12623466,-99999.0,'11111222,11111222,99999999' 
TABS,ioos:station:wmo:42048:1,1997-11-23T23:00:00Z,27.9396,-96.8429,2.0,234.674465,37.61566961,-99999.0,'11111222,11111222,99999999' 
TABS,ioos:station:wmo:42048:1,1997-11-23T23:30:00Z,27.9396,-96.8429,2.0,228.2038896,45.16280439,-99999.0,'11111222,11111222,99999999' 
TABS,ioos:station:wmo:42048:1,1997-11-24T00:00:00Z,27.9396,-96.8429,2.0,222.5591714,44.50324033,-99999.0,'11111222,11111222,99999999' 
TABS,ioos:station:wmo:42048:1,1997-11-24T00:30:00Z,27.9396,-96.8429,2.0,218.2874026,57.71366909,-99999.0,'11111222,11111222,99999999' 
TABS,ioos:station:wmo:42048:1,1997-11-24T01:00:00Z,27.9396,-96.8429,2.0,226.4216528,51.00517719,-99999.0,'11111222,11111222,99999999' 
TABS,ioos:station:wmo:42048:1,1997-11-24T01:30:00Z,27.9396,-96.8429,2.0,220.3558401,59.82671393,-99999.0,'11111222,11111222,99999999' 
TABS,ioos:station:wmo:42048:1,1997-11-24T02:00:00Z,27.9396,-96.8429,2.0,220.3443904,64.90732855,-99999.0,'11111222,11111222,99999999' 
TABS,ioos:station:wmo:42048:1,1997-11-24T02:30:00Z,27.9396,-96.8429,2.0,214.4927291,64.71767996,-99999.0,'11111222,11111222,99999999' 
TABS,ioos:station:wmo:42048:1,1997-11-24T03:00:00Z,27.9396,-96.8429,2.0,214.7618524,61.66572143,-99999.0,'11111222,11111222,99999999' 
TABS,ioos:station:wmo:42048:1,1997-11-24T03:30:00Z,27.9396,-96.8429,2.0,216.2509777,72.05820009,-99999.0,'11111222,11111222,99999999' 
TABS,ioos:station:wmo:42048:1,1997-11-24T04:00:00Z,27.9396,-96.8429,2.0,212.0883062,67.88021582,-99999.0,'11111222,11111222,99999999' 
TABS,ioos:station:wmo:42048:1,1997-11-24T04:30:00Z,27.9396,-96.8429,2.0,212.8475195,62.07488542,-99999.0,'11111222,11111222,99999999' 
TABS,ioos:station:wmo:42048:1,1997-11-24T05:00:00Z,27.9396,-96.8429,2.0,215.6390633,58.29944511,-99999.0,'11111222,11111222,99999999' 
TABS,ioos:station:wmo:42048:1,1997-11-24T05:30:00Z,27.9396,-96.8429,2.0,214.6336508,55.05591794,-99999.0,'11111222,11111222,99999999' 
TABS,ioos:station:wmo:42048:1,1997-11-24T06:00:00Z,27.9396,-96.8429,2.0,216.2957072,59.90300493,-99999.0,'11111222,11111222,99999999' 
TABS,ioos:station:wmo:42048:1,1997-11-24T06:30:00Z,27.9396,-96.8429,2.0,214.6525654,53.97440227,-99999.0,'11111222,11111222,99999999' 
TABS,ioos:station:wmo:42048:1,1997-11-24T07:00:00Z,27.9396,-96.8429,2.0,216.0793051,51.62091049,-99999.0,'11111222,11111222,99999999' 
TABS,ioos:station:wmo:42048:1,1997-11-24T07:30:00Z,27.9396,-96.8429,2.0,215.8541123,56.98895068,-99999.0,'11111222,11111222,99999999' 
TABS,ioos:station:wmo:42048:1,1997-11-24T08:00:00Z,27.9396,-96.8429,2.0,216.4961177,64.12536238,-99999.0,'11111222,11111222,99999999' 
TABS,ioos:station:wmo:42048:1,1997-11-24T08:30:00Z,27.9396,-96.8429,2.0,217.6942528,66.28486554,-99999.0,'11111222,11111222,99999999' 
TABS,ioos:station:wmo:42048:1,1997-11-24T09:00:00Z,27.9396,-96.8429,2.0,217.3942219,71.64500331,-99999.0,'11111222,11111222,99999999' 
TABS,ioos:station:wmo:42048:1,1997-11-24T09:30:00Z,27.9396,-96.8429,2.0,214.9745551,84.73234211,-99999.0,'11111222,11111222,99999999' 